Precipitable_Water
1.84 1.97 2.08 1.91 1.40 1.36 1.17 1.17 1.22 1.14 1.23 1.30 1.29 1.05 1.10 1.15 0.96 0.78 1.61 1.70 1.68 1.72 1.79 1.74 1.61 1.48 1.43 1.43 1.73 1.66 1.58 1.55 1.60 1.52 1.48 1.53 1.58 1.67 1.62 1.64 1.68 1.76 1.85 1.91 1.86 1.73 1.68 1.73 1.76
1.90 2.05 2.08 1.80 1.28 1.07 1.10 1.21 1.08 1.24 1.30 1.26 1.19 1.11 1.09 1.11 1.31 1.34 1.45 1.67 1.70 1.68 1.64 1.48 1.42 1.51 1.65 1.62 1.64 1.69 1.65 1.72 1.77 1.73 1.68 1.80 1.78 1.79 1.77 1.82 1.83 1.84 1.83 1.80 1.76 1.65 1.73 1.77 1.82
2.03 2.17 1.67 1.55 1.34 1.05 1.10 1.24 1.26 1.33 1.35 1.15 1.08 1.14 1.08 1.08 1.38 1.36 1.60 1.66 1.65 1.57 1.50 1.52 1.53 1.58 1.68 1.75 1.74 1.72 1.76 1.83 1.82 1.80 1.85 1.82 1.82 1.82 1.88 1.88 1.85 1.83 1.87 1.80 1.67 1.61 1.68 1.80 1.81
1.90 1.93 1.83 1.26 1.27 1.35 1.28 1.29 1.33 1.24 1.30 1.17 1.05 0.78 1.18 1.46 1.34 1.48 1.60 1.61 1.55 1.50 1.50 1.54 1.57 1.70 1.80 1.85 1.87 1.85 1.82 1.87 1.86 1.85 1.84 1.80 1.79 1.85 1.87 1.82 1.85 1.85 1.86 1.87 1.76 1.62 1.68 1.81 1.80
1.95 1.78 1.40 1.12 1.26 1.36 1.46 1.48 1.36 1.25 1.22 1.09 0.84 0.91 1.07 1.33 1.46 1.54 1.61 1.68 1.63 1.62 1.54 1.64 1.79 1.82 1.79 1.76 1.84 1.84 1.83 1.82 1.82 1.81 1.77 1.69 1.68 1.74 1.72 1.74 1.84 2.03 2.02 1.95 1.88 1.75 1.80 1.78 1.75
1.57 1.69 1.19 1.15 1.29 1.42 1.51 1.58 1.49 1.28 1.30 1.17 0.84 0.97 1.08 1.37 1.36 1.50 1.64 1.63 1.69 1.53 1.68 1.77 1.75 1.77 1.79 1.79 1.80 1.82 1.78 1.78 1.73 1.66 1.66 1.66 1.67 1.66 1.73 1.90 2.02 1.99 1.92 1.97 1.89 1.78 1.71 1.70 1.70
1.48 1.52 1.30 1.34 1.35 1.41 1.49 1.70 1.58 1.36 1.34 1.18 1.02 0.75 1.09 1.31 1.59 1.56 1.66 1.64 1.62 1.60 1.62 1.66 1.72 1.75 1.77 1.76 1.79 1.72 1.74 1.73 1.73 1.68 1.64 1.61 1.50 1.62 1.83 1.99 2.03 1.88 1.90 1.89 1.81 1.72 1.60 1.61 1.67
1.61 1.54 1.36 1.44 1.33 1.32 1.53 1.69 1.76 1.47 1.39 1.49 1.15 0.76 0.90 1.54 1.69 1.65 1.81 1.64 1.62 1.58 1.58 1.57 1.64 1.69 1.69 1.72 1.72 1.68 1.68 1.67 1.67 1.74 1.62 1.49 1.54 1.67 1.89 1.95 1.97 1.91 1.88 1.81 1.77 1.63 1.57 1.58 1.66
1.76 1.34 1.23 1.29 1.35 1.37 1.64 1.48 1.72 1.92 1.68 1.54 1.29 1.03 1.09 1.42 1.56 1.45 1.60 1.58 1.65 1.68 1.68 1.68 1.71 1.66 1.53 1.58 1.66 1.62 1.67 1.83 1.89 1.98 1.65 1.59 1.50 1.64 1.90 1.85 1.90 1.92 1.88 1.74 1.59 1.45 1.53 1.59 1.66
1.49 1.23 1.26 1.49 1.49 1.45 1.56 1.48 1.51 1.58 1.63 1.72 1.26 1.11 1.23 1.50 1.36 1.36 1.44 1.61 1.64 1.59 1.67 1.62 1.57 1.48 1.59 1.67 1.63 1.52 1.68 1.92 2.00 1.73 1.59 1.58 1.57 1.68 1.86 1.91 1.96 1.95 2.03 1.87 1.58 1.65 1.70 1.68 1.73
1.50 1.27 1.43 1.44 1.49 1.54 1.46 1.42 1.55 1.54 1.44 1.44 1.22 1.00 1.15 1.32 1.19 1.31 1.31 1.42 1.58 1.75 1.64 1.57 1.50 1.66 1.64 1.65 1.65 1.74 1.68 1.91 1.72 1.59 1.51 1.62 1.58 1.68 1.89 1.98 1.98 1.96 1.93 1.79 1.73 1.92 1.84 1.65 1.68
1.26 1.64 1.57 1.47 1.52 1.44 1.36 1.55 1.49 1.59 1.57 1.58 1.41 1.19 1.17 1.15 1.24 1.20 1.29 1.41 1.49 1.62 1.62 1.56 1.64 1.74 1.67 1.87 1.65 1.63 1.67 1.68 1.69 1.73 1.68 1.55 1.62 1.63 1.85 1.87 1.87 1.86 1.73 1.60 1.70 1.69 1.73 1.62 1.67
1.33 1.43 1.53 1.50 1.47 1.44 1.45 1.38 1.44 1.59 1.71 1.69 1.43 1.26 1.13 1.21 1.23 1.17 1.35 1.41 1.42 1.59 1.52 1.57 1.73 1.69 1.82 1.76 1.63 1.65 1.62 1.57 1.67 1.68 1.69 1.79 1.92 1.62 1.74 1.64 1.54 1.67 1.67 1.60 1.45 1.54 1.61 1.65 1.47
1.22 1.27 1.45 1.47 1.39 1.40 1.28 1.35 1.45 1.59 1.69 1.61 1.41 1.21 1.13 1.14 1.32 1.32 1.46 1.61 1.37 1.37 1.52 1.53 1.61 1.64 1.70 1.62 1.75 1.65 1.60 1.58 1.71 1.72 1.57 1.71 1.69 1.64 1.79 1.79 1.74 1.85 1.59 1.61 1.65 1.61 1.56 1.50 1.43
1.19 1.22 1.27 1.40 1.29 1.24 1.36 1.23 1.34 1.64 1.65 1.51 1.38 1.24 1.12 1.10 1.28 1.32 1.40 1.48 1.34 1.39 1.47 1.48 1.40 1.69 1.75 1.74 1.83 1.57 1.66 1.66 1.69 1.69 1.64 1.70 1.75 1.83 1.85 1.83 1.78 1.85 1.91 1.83 1.77 1.63 1.74 1.59 1.44
1.05 1.10 0.99 1.35 1.32 1.29 1.25 1.08 1.47 1.63 1.59 1.47 1.39 1.22 1.11 1.13 1.27 1.36 1.45 1.60 1.41 1.32 1.38 1.37 1.34 1.59 1.65 1.76 1.74 1.68 1.71 1.64 1.70 1.73 1.74 1.69 1.71 1.82 1.79 1.71 1.81 1.94 1.78 1.74 1.68 1.69 1.56 1.49 1.44
0.89 0.87 0.94 1.06 1.29 1.17 1.16 1.10 1.38 1.60 1.57 1.45 1.39 1.21 1.11 1.14 1.14 1.17 1.31 1.50 1.37 1.29 1.37 1.29 1.26 1.34 1.55 1.74 1.74 1.67 1.77 1.72 1.68 1.67 1.77 1.77 1.89 1.86 1.77 1.73 1.70 1.93 1.69 1.82 1.69 1.57 1.62 1.49 1.51
0.65 0.80 0.86 0.91 1.48 1.24 1.11 1.11 1.29 1.44 1.52 1.43 1.37 1.22 1.15 1.13 1.06 1.20 1.26 1.30 1.27 1.36 1.36 1.36 1.33 1.31 1.42 1.72 1.77 1.70 1.61 1.75 1.76 1.91 1.82 1.78 1.88 1.79 1.73 1.58 1.69 1.76 1.73 1.60 1.57 1.59 1.59 1.48 1.43
0.74 0.79 0.82 1.12 1.20 1.08 1.18 1.11 1.17 1.32 1.43 1.39 1.33 1.31 1.23 1.16 1.14 1.21 1.26 1.28 1.26 1.30 1.28 1.34 1.28 1.34 1.35 1.62 1.64 1.69 1.68 1.76 1.77 1.83 1.87 1.79 1.76 1.83 1.70 1.63 1.62 1.66 1.65 1.59 1.60 1.69 1.64 1.45 1.33
0.65 0.68 0.89 1.05 1.18 1.11 1.39 1.13 1.19 1.28 1.31 1.36 1.36 1.33 1.32 1.23 1.21 1.14 1.21 1.23 1.26 1.20 1.23 1.32 1.26 1.27 1.27 1.37 1.65 1.78 1.69 1.73 1.85 1.83 1.75 1.78 1.82 1.82 2.05 1.68 1.67 1.74 1.71 1.64 1.59 1.58 1.41 1.37 1.29
0.54 0.58 0.76 0.82 1.04 1.13 1.18 1.05 1.19 1.27 1.30 1.40 1.45 1.47 1.47 1.35 1.24 1.20 1.16 1.19 1.23 1.22 1.14 1.25 1.25 1.28 1.30 1.47 1.69 1.83 1.97 1.73 1.81 1.80 1.74 1.78 1.78 1.74 1.86 1.71 1.66 1.69 1.39 1.32 1.50 1.53 1.41 1.24 1.31
0.40 0.57 0.67 0.84 0.79 0.71 0.93 0.75 1.00 1.26 1.25 1.29 1.39 1.46 1.49 1.44 1.39 1.33 1.24 1.21 1.22 1.26 1.29 1.22 1.26 1.28 1.27 1.52 1.51 1.69 1.66 1.60 1.68 1.68 1.74 1.63 1.73 1.71 1.77 1.75 1.60 1.68 1.47 1.33 1.57 1.61 1.47 1.29 1.26
0.41 0.57 0.74 0.79 0.76 0.79 0.85 0.82 0.91 1.19 1.19 1.24 1.30 1.47 1.51 1.50 1.51 1.41 1.35 1.32 1.39 1.35 1.27 1.32 1.15 1.23 1.20 1.45 1.54 1.64 1.57 1.65 1.84 1.83 1.70 1.64 1.66 1.70 1.63 1.65 1.75 1.73 1.76 1.51 1.39 1.63 1.52 1.37 1.35
0.43 0.48 0.70 0.70 0.68 0.52 0.74 0.81 0.91 1.01 1.20 1.24 1.43 1.43 1.53 1.58 1.61 1.61 1.51 1.46 1.43 1.46 1.32 1.34 1.21 1.12 1.15 1.30 1.42 1.57 1.59 1.74 1.95 1.76 1.84 1.67 1.61 1.59 1.67 1.74 1.62 1.59 1.73 1.55 1.59 1.42 1.43 1.40 1.39
0.41 0.43 0.42 0.46 0.50 0.51 0.66 0.80 0.80 1.06 1.24 1.25 1.38 1.47 1.53 1.62 1.63 1.62 1.54 1.48 1.49 1.58 1.49 1.36 1.16 1.08 1.14 1.19 1.30 1.51 1.65 1.80 1.80 1.73 1.78 1.63 1.68 1.65 1.64 1.72 1.69 1.60 1.52 1.47 1.41 1.30 1.29 1.33 1.32
0.45 0.50 0.43 0.39 0.42 0.47 0.59 0.59 0.73 1.09 1.23 1.29 1.31 1.60 1.60 1.62 1.58 1.59 1.62 1.57 1.59 1.60 1.63 1.44 1.21 1.09 1.13 1.14 1.29 1.65 1.71 1.75 1.82 1.81 1.82 1.86 1.99 1.87 1.80 1.81 1.73 1.70 1.60 1.59 1.44 1.42 1.26 1.29 1.19
0.44 0.43 0.48 0.48 0.52 0.42 0.59 0.73 0.90 1.01 1.04 1.14 1.21 1.24 1.55 1.68 1.69 1.70 1.72 1.69 1.66 1.66 1.61 1.60 1.40 1.20 1.15 1.29 1.28 1.29 1.44 1.55 1.67 1.83 1.87 1.79 1.93 1.89 1.97 1.96 1.66 1.69 1.71 1.63 1.63 1.44 1.31 1.25 1.17
0.52 0.55 0.42 0.46 0.35 0.35 0.55 0.59 0.64 0.90 0.95 1.13 1.21 1.32 1.49 1.51 1.55 1.69 1.85 1.80 1.86 2.01 1.75 1.79 1.69 1.51 1.26 1.29 1.40 1.38 1.37 1.45 1.53 1.60 1.77 1.79 1.76 1.84 2.01 1.97 1.85 1.68 1.71 1.77 1.71 1.55 1.53 1.37 1.33
0.45 0.43 0.45 0.47 0.47 0.39 0.41 0.59 1.00 1.06 1.14 1.17 1.30 1.32 1.34 1.39 1.51 1.62 1.83 1.96 1.99 2.07 2.12 1.91 1.85 1.82 1.73 1.58 1.47 1.49 1.48 1.44 1.48 1.54 1.66 1.73 1.76 1.87 1.85 1.86 1.92 1.64 1.65 1.65 1.64 1.67 1.80 1.74 1.42
0.55 0.43 0.46 0.40 0.44 0.53 0.52 0.61 1.20 1.29 1.25 1.23 1.25 1.28 1.33 1.39 1.53 1.64 1.70 1.90 1.89 1.72 2.19 2.04 2.03 2.03 1.95 1.94 1.83 1.61 1.56 1.60 1.54 1.49 1.54 1.57 1.50 1.55 1.59 1.63 1.65 1.72 1.78 1.76 1.79 1.65 1.57 1.65 1.53
Wind_Speed
3 2 0 1 4 5 7 11 10 10 18 16 12 12 11 8 8 11 20 20 19 18 17 17 16 14 13 12 11 10 9 9 9 9 9 9 10 10 10 11 11 11 11 12 13 13 14 15 16
3 1 1 4 5 5 9 13 12 15 17 16 17 16 15 14 15 20 20 20 19 19 17 16 15 14 12 11 11 10 10 10 10 10 10 10 10 10 10 11 11 12 12 13 13 13 14 15 15
2 2 2 3 4 9 14 13 10 14 13 12 12 12 9 17 20 18 22 21 20 18 17 16 14 13 12 11 11 11 10 10 11 11 10 10 10 11 11 11 11 12 12 13 13 14 14 15 14
2 1 3 5 5 10 11 15 16 16 16 16 15 15 18 19 19 22 22 21 20 18 17 15 14 13 11 11 10 10 10 10 11 11 11 11 11 11 11 11 11 11 12 12 13 13 14 14 14
2 3 4 6 5 15 13 8 14 13 14 15 18 22 22 20 22 23 22 21 19 17 16 15 13 12 11 10 10 10 11 11 11 11 11 11 11 11 11 11 11 11 12 12 12 13 14 14 14
2 3 7 10 15 14 12 11 13 15 16 17 20 21 19 21 22 22 20 18 17 17 15 14 13 12 11 11 11 11 11 11 12 12 12 12 12 12 12 12 12 13 13 12 12 13 13 14 15
2 5 4 11 18 16 11 11 10 15 17 14 18 20 20 21 21 21 19 17 18 16 15 14 13 12 12 11 11 11 12 12 12 12 12 12 12 13 14 14 16 18 17 16 14 15 16 14 14
2 2 6 10 12 9 10 7 8 9 13 16 17 15 19 23 20 19 18 19 17 16 14 13 13 12 12 12 12 12 13 13 13 13 13 14 14 15 16 17 19 19 19 18 17 17 15 15 14
3 2 1 5 8 6 10 9 10 11 11 14 10 16 19 22 21 19 19 19 16 15 14 14 13 12 13 12 12 13 13 14 14 14 15 15 16 16 16 17 18 18 16 16 17 17 17 15 14
5 3 3 7 8 11 11 9 8 9 10 9 18 17 20 24 20 19 18 17 14 14 13 12 13 14 13 13 13 14 14 14 14 14 14 15 15 16 16 17 16 15 13 12 15 17 16 14 13
3 4 7 10 12 12 11 7 5 9 10 18 20 20 19 22 18 18 16 15 15 15 12 13 13 13 12 13 13 13 12 12 12 13 14 15 15 16 16 16 15 15 17 16 14 11 13 13 13
3 6 5 11 12 11 9 8 7 9 16 17 20 20 19 20 18 15 16 17 15 14 12 12 12 12 11 11 12 13 12 12 12 13 14 15 15 15 15 15 14 15 13 13 14 13 13 13 12
11 2 5 10 10 8 8 7 7 11 14 17 21 18 18 19 18 16 17 17 14 12 12 13 11 10 10 10 11 11 10 11 12 13 13 12 12 13 13 14 13 13 14 15 14 14 13 13 14
6 7 8 11 8 8 8 9 8 14 18 19 21 18 17 17 18 18 17 17 14 13 13 13 12 11 11 11 11 10 11 12 12 12 12 12 12 13 13 12 14 14 15 16 15 14 13 14 14
8 4 5 15 10 8 10 10 12 15 18 22 20 19 17 17 19 19 17 17 14 14 14 11 10 10 10 11 10 9 10 11 11 12 12 12 12 13 11 12 13 13 13 14 13 12 13 14 15
9 8 6 15 12 9 3 7 11 13 17 22 22 19 18 17 19 17 17 17 15 14 12 10 11 10 10 9 9 11 12 11 9 10 11 11 11 11 10 11 11 12 13 12 12 13 13 14 14
16 13 14 13 13 12 5 8 11 11 18 21 23 20 18 19 18 17 16 16 15 14 12 11 12 10 11 10 9 10 10 9 10 10 9 9 10 9 10 10 10 12 11 12 12 13 13 12 13
15 15 11 10 10 6 7 8 12 12 18 22 23 21 18 19 17 18 18 16 16 14 12 13 12 11 11 10 9 9 8 8 9 8 8 8 8 8 8 9 10 10 11 11 12 11 12 11 10
17 16 14 15 11 10 14 13 14 14 17 23 24 21 19 19 17 17 17 16 16 14 13 13 12 11 11 9 9 8 7 7 7 7 7 8 8 8 9 8 9 9 10 10 10 10 9 9 9
22 18 10 11 12 10 24 14 14 16 18 23 22 20 21 19 18 17 17 17 16 15 14 14 13 12 11 10 8 8 8 8 7 7 7 7 8 8 7 8 8 9 9 9 9 9 9 8 9
23 19 20 17 14 11 4 2 12 19 19 19 19 20 20 20 20 18 18 18 17 16 15 15 15 13 12 11 9 8 7 7 7 6 7 7 7 7 7 8 8 8 8 8 8 8 8 8 8
20 19 19 18 13 13 12 6 11 20 20 20 22 20 21 21 19 19 18 18 18 17 15 16 16 15 14 11 10 8 6 8 7 7 7 7 8 8 7 7 9 8 8 8 8 8 8 7 7
21 17 17 19 17 10 18 8 9 14 20 20 22 22 22 23 21 21 19 19 19 18 17 16 17 16 16 14 11 10 9 8 7 8 8 7 7 8 8 8 8 8 7 8 8 7 7 7 6
19 18 16 13 12 14 16 14 8 14 19 16 22 22 21 23 22 20 21 19 19 19 17 16 17 18 17 16 14 12 11 8 8 9 8 8 7 7 7 7 8 7 7 7 7 7 6 7 6
20 18 14 12 13 15 17 20 13 16 16 17 18 18 21 22 24 21 23 22 19 20 19 17 17 18 18 18 16 14 12 10 9 11 10 9 8 7 8 7 7 6 6 6 6 6 7 6 5
22 20 17 15 13 13 9 14 15 16 16 15 15 23 18 20 21 21 24 23 22 22 20 19 17 18 18 19 18 16 14 12 11 11 10 10 8 8 8 7 6 6 6 5 6 6 6 6 6
20 23 22 15 14 12 10 10 11 12 13 12 9 14 18 18 21 21 20 25 24 24 23 21 19 19 19 18 19 18 16 15 14 11 11 10 9 7 9 7 6 6 6 6 5 5 4 5 6
21 18 16 16 13 9 10 13 14 17 16 12 10 10 10 12 16 20 22 19 20 20 23 23 20 19 19 20 19 18 18 16 15 14 13 12 11 9 9 8 6 6 6 5 5 4 4 4 5
21 21 19 15 14 12 13 11 12 16 15 13 11 9 9 9 12 15 17 20 22 19 21 22 19 17 18 21 20 20 19 18 17 16 15 14 13 11 10 9 9 7 7 6 6 5 5 5 4
21 21 21 17 14 11 12 13 12 12 13 14 11 11 10 10 11 11 13 16 13 16 23 25 20 19 16 19 20 22 20 20 19 17 16 15 14 13 12 10 10 10 8 7 7 6 6 6 6
Wind_Direction
142 128 123 161 127 135 132 131 123 104 83 95 98 104 111 112 104 120 134 132 131 128 125 123 119 115 109 106 103 98 95 91 87 85 87 88 92 93 95 97 99 100 99 97 97 95 97 98 96
155 104 68 148 141 139 130 134 129 106 101 94 93 99 93 92 110 125 129 133 131 128 125 123 119 113 107 103 100 95 92 87 85 85 88 89 93 94 96 98 100 101 102 100 99 100 101 101 97
181 272 152 181 140 141 132 139 136 106 105 96 98 93 101 113 118 125 129 131 130 127 125 123 118 112 105 101 97 93 89 87 86 86 88 89 92 94 96 98 101 105 106 102 101 103 104 102 99
165 90 257 200 141 149 138 137 121 106 101 100 105 92 110 118 120 127 130 130 128 126 125 122 116 110 104 100 95 92 89 88 87 87 88 89 92 95 95 98 103 107 109 107 104 106 107 104 101
224 328 280 180 139 136 119 122 123 113 105 103 105 112 114 116 124 128 127 127 126 125 124 120 115 110 103 97 95 93 91 90 89 87 88 90 94 95 95 97 104 109 111 111 107 113 111 106 102
194 33 99 150 135 131 122 107 116 118 116 109 107 116 120 126 126 128 129 128 128 126 123 119 114 108 102 98 96 94 93 92 90 88 89 91 95 96 95 96 101 106 111 111 112 115 119 112 106
219 308 197 141 141 125 139 106 115 128 124 114 120 118 128 132 133 131 131 126 125 126 123 119 114 108 103 99 97 96 95 94 92 89 89 90 94 98 97 93 102 106 100 102 112 115 116 114 110
218 325 33 135 141 117 149 133 130 138 126 128 124 130 134 139 135 130 132 131 123 121 121 118 115 110 103 99 97 97 99 97 94 89 90 93 96 99 100 97 103 106 102 98 104 112 112 112 109
201 302 359 151 156 120 142 141 130 138 141 134 133 138 138 143 142 132 131 138 129 125 121 117 115 111 104 100 98 101 103 99 97 92 90 94 96 100 101 102 106 105 100 97 101 107 109 109 108
221 235 58 93 130 145 143 143 160 172 153 149 138 140 142 147 144 141 140 137 134 129 126 121 117 114 105 99 99 105 105 100 96 93 94 94 97 103 105 106 108 104 101 97 109 107 107 107 104
219 189 131 106 108 133 137 140 149 156 172 158 151 151 150 151 145 144 145 147 139 134 126 124 123 117 106 102 101 105 105 103 101 95 96 96 106 107 104 104 103 104 95 104 104 98 100 103 103
109 195 166 129 119 126 143 142 140 149 159 162 154 155 153 157 155 153 149 148 143 140 135 130 129 121 110 109 105 106 102 104 104 101 99 104 107 106 103 101 102 103 103 105 108 103 101 102 99
216 212 149 148 133 123 132 144 142 150 165 164 159 161 161 160 162 157 150 150 148 146 139 138 132 129 110 110 109 108 102 109 105 105 105 106 109 112 114 95 99 107 101 103 108 101 101 101 105
237 215 186 162 144 132 124 142 145 157 162 168 164 164 165 166 165 158 155 157 151 148 144 140 135 129 115 110 106 110 110 111 105 107 104 106 109 115 109 103 101 104 104 107 107 102 98 101 102
210 211 230 190 160 144 126 143 153 164 169 167 170 169 168 166 161 163 161 161 156 150 148 147 147 142 130 118 109 104 118 118 109 105 109 109 108 111 109 109 108 104 106 105 106 110 100 101 107
212 203 220 171 166 168 162 160 161 172 174 174 174 173 171 168 161 164 155 164 161 159 156 154 153 146 145 130 113 107 116 117 114 114 111 112 114 112 106 111 111 114 108 109 101 112 104 102 109
210 210 216 190 200 186 192 164 175 182 185 180 179 177 176 171 171 180 178 170 170 167 166 159 154 151 149 139 122 128 122 113 118 111 112 117 120 115 111 111 114 113 113 111 108 108 109 109 109
215 212 218 196 197 195 221 179 180 187 182 181 180 180 179 175 177 175 175 177 176 174 170 166 165 161 155 148 136 129 121 124 123 119 114 115 123 122 118 116 122 119 115 114 111 112 109 110 110
223 216 215 210 219 224 216 180 185 190 181 181 183 185 183 179 180 179 180 179 178 181 179 177 173 168 166 160 156 140 134 137 130 127 127 120 119 122 135 122 128 126 123 121 120 114 111 113 110
226 232 213 227 218 239 204 176 190 195 191 185 188 191 187 187 187 187 184 185 185 185 186 185 182 177 174 169 164 155 146 140 137 126 129 129 128 128 131 131 131 129 132 128 126 120 116 114 117
223 228 214 214 214 225 206 208 205 200 194 194 197 197 196 193 190 191 190 191 192 191 192 190 189 186 183 178 172 166 169 156 149 146 138 134 132 133 132 134 137 140 136 139 138 134 126 119 119
222 223 220 195 214 236 235 271 219 203 200 201 201 203 200 200 198 198 197 193 194 194 195 197 197 196 192 187 188 187 177 177 168 158 147 136 136 133 134 140 147 139 139 138 140 136 134 126 119
215 205 198 201 215 219 218 202 212 199 197 200 204 207 208 206 204 204 202 196 199 199 200 200 202 203 200 198 195 191 180 170 179 171 157 148 145 140 133 137 139 144 144 151 150 140 140 138 128
214 209 214 230 223 224 216 211 213 209 198 208 207 207 210 210 210 210 204 203 202 202 202 203 204 205 205 204 201 193 191 186 179 183 173 164 155 150 148 143 138 143 152 156 156 161 156 149 142
216 210 221 219 215 229 224 215 237 207 202 206 212 221 213 215 213 215 208 208 204 204 204 205 205 206 208 206 204 200 198 198 193 182 184 175 168 159 158 152 155 149 146 157 167 167 166 169 161
211 208 207 208 210 216 205 214 233 209 208 217 236 217 219 217 211 215 208 210 210 207 207 206 206 205 207 206 206 206 206 203 199 191 191 195 191 184 179 169 168 166 168 156 162 170 182 185 189
215 217 215 231 243 222 211 222 209 215 208 210 214 203 218 215 215 216 218 215 215 213 211 209 207 206 206 207 208 210 209 209 207 206 202 196 194 188 194 183 177 176 173 178 175 175 177 194 200
209 214 212 221 224 210 218 220 216 208 197 200 196 181 195 209 214 215 214 213 210 212 212 212 212 212 211 210 211 212 212 212 212 212 208 204 202 199 188 193 193 188 183 184 183 183 186 189 198
214 216 213 216 219 214 210 227 241 201 197 189 187 187 189 198 202 197 205 208 208 210 214 210 213 217 220 217 217 216 216 215 215 214 212 209 205 203 208 208 210 201 200 195 196 201 206 217 213
217 215 214 210 221 212 214 226 208 184 192 194 197 200 199 205 209 208 209 211 227 240 213 211 220 226 222 225 224 219 219 217 218 217 215 215 215 215 214 215 216 211 212 208 210 215 221 222 222